#timestamp,LO_Frequency,Hit,StdDev 
1549641615.4,286046994.7,N
1549641635.3,286046992.1,N
1549641655.1,286046994.7,N
1549641656.0,286046994.7,N
1549641675.8,286046992.9,N
1549641695.7,286046992.1,Y
1549641715.5,286046997.3,P
1549641735.4,286046997.1,P
1549641755.2,286046997.6,P
1549641775.0,286046999.3,N
1549641775.9,286046999.3,N
1549641795.8,286046999.6,N
1549641815.6,286046996.7,N
1549641835.4,286046996.7,N
1549641855.3,286046999.2,N
1549641875.1,286046999.2,N
1549641895.9,286046996.7,N
1549641915.7,286046995.1,Y
1549641935.5,286046998.8,P
1549641955.4,286046998.3,P
1549641975.2,286046997.8,P
1549641995.0,286046997.1,Y
1549641995.9,286046997.1,P
1549642015.8,286046998.4,N
1549642035.6,286047000.8,N
1549642055.5,286047000.8,N
1549642075.3,286046998.6,N
1549642095.1,286047001.0,N
1549642115.9,286046998.5,N
1549642135.7,286046996.6,N
1549642155.5,286046998.8,N
1549642175.4,286046998.9,N
1549642195.2,286046999.1,N
1549642215.1,286046998.9,N
1549642216.0,286046998.9,N
1549642235.8,286046999.1,N
1549642255.6,286046998.7,N
1549642275.5,286047001.1,N
1549642295.3,286046998.7,N
1549642315.1,286046999.0,N
1549642335.9,286046998.4,N
1549642355.7,286046999.3,N
1549642375.6,286046998.8,N
1549642395.4,286046998.6,N
1549642415.2,286046998.2,N
1549642435.1,286046998.5,N
1549642436.0,286046998.5,N
1549642455.8,286046998.9,N
1549642475.6,286046998.8,N
1549642495.5,286047000.2,N
1549642515.3,286046998.4,N
1549642535.2,286046999.3,N
1549642555.9,286046998.1,N
1549642575.7,286046996.5,Y
1549642595.6,286047000.1,P
1549642615.4,286047000.1,N
1549642635.2,286047002.7,P
1549642655.1,286047000.4,N
1549642656.0,286047000.4,N
1549642675.8,286047001.1,N
1549642695.7,286047000.8,N
1549642715.5,286047000.2,N
1549642735.3,286046998.2,N
1549642755.2,286046998.5,N
1549642775.9,286046998.6,N
1549642795.7,286046999.1,N
1549642815.6,286046996.5,N
1549642835.4,286046998.9,N
1549642855.3,286046999.6,N
1549642875.1,286046999.3,N
1549642876.0,286046999.3,N
1549642895.8,286046998.7,N
1549642915.7,286046998.3,N
1549642935.5,286046999.2,N
1549642955.3,286047000.7,N
1549642975.2,286046999.3,N
1549642995.0,286046998.0,N
1549642995.9,286046998.0,N
1549643015.8,286046997.2,N
1549643035.6,286046996.5,N
1549643055.4,286046995.0,Y
1549643075.3,286046996.7,P
1549643095.1,286046998.5,N
1549643115.8,286046999.0,N
1549643135.7,286046998.7,N
1549643155.5,286046998.1,N
1549643175.4,286046998.5,N
1549643195.2,286047000.0,N
1549643215.0,286047000.9,N
1549643215.9,286047000.9,N
1549643235.8,286047000.4,N
1549643255.6,286046999.9,N
1549643275.5,286047000.0,N
1549643295.3,286046998.1,N
1549643315.1,286047000.4,N
1549643335.9,286046998.1,N
1549643355.7,286047000.7,N
1549643375.5,286046998.5,N
1549643395.4,286046998.7,N
1549643415.2,286046998.3,N
1549643435.1,286046998.8,N
1549643436.0,286046998.8,N
1549643455.8,286046996.7,Y
1549643475.6,286046999.1,P
1549643495.5,286046999.6,P
1549643515.3,286046998.8,P
1549643535.1,286047000.8,N
1549643555.9,286046998.4,N
1549643575.7,286046998.5,N
1549643595.6,286047000.4,N
1549643615.4,286047000.7,N
1549643635.2,286046998.8,N
1549643655.1,286046998.7,N
1549643656.0,286046998.7,N
1549643675.8,286046999.5,N
1549643695.6,286047001.2,N
1549643715.5,286046998.4,N
1549643735.3,286046999.5,N
1549643755.2,286046997.2,Y
1549643775.9,286046996.5,P
1549643795.7,286046999.5,N
1549643815.6,286046998.9,N
1549643835.4,286046998.9,N
1549643855.3,286046996.5,Y
1549643875.1,286047002.7,P
1549643876.0,286047002.7,N
1549643895.8,286047000.0,N
1549643915.7,286047000.9,N
1549643935.5,286047000.9,N
1549643955.3,286047001.2,N
1549643975.2,286046998.5,N
1549643995.0,286047000.8,N
1549643995.9,286047000.8,N
1549644015.8,286046999.2,N
1549644035.6,286046999.1,N
1549644055.4,286046998.4,N
1549644075.3,286046998.3,N
1549644095.1,286046999.4,N
1549644115.8,286046999.6,N
1549644135.7,286046998.5,N
1549644155.5,286046998.7,N
1549644175.4,286046998.2,N
1549644195.2,286046999.3,N
1549644215.0,286046998.3,N
1549644215.9,286046998.3,N
1549644235.8,286046999.6,N
1549644255.6,286046998.6,N
1549644275.4,286046998.1,N
1549644295.3,286047001.2,N
1549644315.1,286046998.6,N
1549644335.9,286047000.5,N
1549644355.7,286047000.6,N
1549644375.5,286047002.4,N
1549644395.4,286047002.3,N
1549644415.2,286047002.6,N
1549644435.0,286047003.9,N
1549644435.9,286047003.9,N
1549644455.8,286047003.5,N
1549644475.6,286047001.7,N
1549644495.5,286047002.3,N
1549644515.3,286047002.1,N
1549644535.1,286047001.3,N
1549644555.9,286047002.8,N
1549644575.7,286046999.7,N
1549644595.5,286047002.6,N
1549644615.4,286047002.3,N
1549644635.2,286047002.5,N
1549644655.0,286047002.0,N
1549644656.0,286047002.0,N
1549644675.8,286047000.0,N
1549644695.6,286047000.1,N
1549644715.5,286047000.0,N
1549644735.3,286047002.6,N
1549644755.1,286047004.4,N
1549644775.9,286047001.7,N
1549644795.7,286047002.4,N
1549644815.6,286047000.0,N
1549644835.4,286047002.3,N
1549644855.2,286047000.5,N
1549644875.1,286046999.9,N
1549644876.0,286046999.9,N
1549644895.8,286047004.4,Y
1549644915.7,286047000.9,P
1549644935.5,286047001.2,N
1549644955.3,286047001.2,P
1549644975.2,286046998.1,Y
1549644995.0,286046997.0,P
1549644995.9,286046997.0,N
1549645015.8,286046997.0,N
1549645035.6,286046999.6,N
1549645055.4,286046997.5,N
1549645075.3,286046997.5,N
1549645095.1,286046997.7,N
1549645115.8,286046995.4,Y
1549645135.7,286046996.9,P
1549645155.5,286047001.1,N
1549645175.4,286046998.9,N
1549645195.2,286046998.3,N
